San Luis County Regional Airport
KSBP : now visible

Airfield :











YOU CAN JOIN US ON...

 
LOGIN :

Register | Disclaimer

   EN    FR    IT 

 









Legend :    VFR   Marginal VFR   IFR   Intensive IFR   Very Intensive IFR
Visi :
Ceiling :
>= 8 km
>= 3000ft
5 to 8 km
1000 to 3000 ft
1500m to 5 km
500 to 1000 ft
800 to 1500m
200 to 500 ft
< 800m
< 200 ft
Symbols :   Thunderstorms  Fog  Heavy snow  Heavy precipitations  Wind > 20 kt






- Airport Elevation : 212 ft
- IATA code : SBP


KSBP - San Luis County Regional

CURRENT METAR :
  • 240156Z 30011KT 10SM SKC 20/11 A2997

EXPIRED METARs :
  • 240056Z 30013KT 10SM SKC 26/07 A2996

TAF KSBP
Valid from the 24 at 00:00 until the 25 at 00:00 UTC


232341Z 2400/2424 31015KT P6SM SKC
FM240200 31006KT P6SM SKC
FM241000 VRB03KT P6SM SKC
FM241600 31006KT P6SM SKC
FM242300 31015G23KT P6SM SKC AMD NOT SKED 2403/2416
KZLA FIR / North America



MET'MAP, your aeronautical weather chart ! - Copyright ORBIFLY December 2007 - Disclaimer

ORBIFLY MET'MAP TEAM :

Programming & Development : Alexandra Zaïnal
Concept & original design : Baudouin d'Aumeries
Assistance for programming : Marc-Olivier Méhu
Technical & hardware support : Manuel Goepfert

Contact : metmap@orbifly.com




SOURCES & CREDITS :

   NOAA       Earth
Advisory